Location: Gellin
(53.4498°N, 14.3207°E)
Time: 21:54:10
(UTC+00:00)

Cosmos 1633 Rocket - Pass Details

Date: 03 March 2021
Orbit: 606 x 624 km, 82.5° (Epoch: 12 April)

Event Time Altitude Azimuth Distance (km) Brightness Sun altitude
Rises 17:57:53 0° 195° (SSW) 2,895 6.6 -11.7°
Reaches altitude 10° 18:00:07 10° 198° (SSW) 1,995 5.8 -12.0°
Maximum altitude 18:04:32 71° 282° (WNW) 667 3.4 -12.7°
Drops below altitude 10° 18:08:59 10° 8° (N) 2,012 5.7 -13.3°
Sets 18:11:15 0° 10° (N) 2,923 6.5 -13.7°
